DateTimeUTC,F1_A11,F1_S11,BsB_S11,BsG_S11,BsR_S11,BbsB_S11,BbsG_S11,BbsR_S11,BaB_A11,BaG_A11,BaR_A11,Tu_S11,T_S11,Uu_S11,U_S11,P_S11,T1_A11
2021-02-05T19:00:00Z,00000200,21000000,,,,,,,0000.14,-000.13,0000.19,15.7,23.2,,00.0,0643.5,30.9
2021-02-05T19:01:00Z,00000200,21000000,,,,,,,0000.57,0000.74,-000.07,15.7,23.2,,00.0,0643.4,30.9
2021-02-05T19:02:00Z,00000200,21000000,,,,,,,-000.25,-000.33,0000.10,15.7,23.2,,00.0,0643.4,30.9
2021-02-05T19:03:00Z,00000200,61000000,,,,,,,0000.38,0000.65,0000.48,15.7,23.3,,00.0,0643.4,30.9
2021-02-05T19:04:00Z,00000200,41000000,0000.99,0000.16,0000.24,-000.24,0000.07,0000.27,0000.49,0000.13,0000.55,16.2,23.1,,00.0,0644.3,30.9
2021-02-05T19:05:00Z,00000200,01000000,0000.39,0000.20,0000.09,-000.47,0000.10,-000.11,-000.13,-000.16,-000.03,16.3,23.1,,00.0,0644.4,30.9
2021-02-05T19:06:00Z,00000200,01000000,0000.42,0000.42,0000.24,-000.23,0000.06,-000.16,0000.20,0000.26,-000.21,16.4,23.2,,00.0,0644.4,30.9
2021-02-05T19:07:00Z,00000200,01000000,0000.53,0000.19,0000.14,-000.27,0000.40,0000.40,0000.56,0000.83,-000.47,16.5,23.2,,00.0,0644.4,30.9
2021-02-05T19:08:00Z,00000200,01000000,0000.62,0000.43,-000.01,0000.25,0000.17,0000.07,-000.09,-000.14,0000.66,16.5,23.3,,00.0,0644.4,30.9
2021-02-05T19:09:00Z,00000200,01000000,0000.93,0000.20,0000.05,-000.36,-000.07,0000.35,-000.21,-000.25,0000.11,16.6,23.3,,00.0,0644.5,31.0
2021-02-05T19:10:00Z,00000200,01000000,-000.17,0000.63,-000.09,0000.11,-000.02,0000.10,0000.46,-000.12,0000.05,16.7,23.3,,00.0,0644.5,31.0
2021-02-05T19:11:00Z,00000200,01000000,0001.44,0000.23,0000.01,-000.13,-000.01,0000.05,-000.40,0000.14,-000.13,16.7,23.3,,00.0,0644.5,30.9
2021-02-05T19:12:00Z,00000200,01000000,0000.60,0000.39,0000.07,-000.14,0000.04,0000.23,0000.20,0000.19,0000.15,16.7,23.3,,00.0,0644.5,30.9
2021-02-05T19:13:00Z,00000200,01000000,0000.65,0000.08,0000.16,-000.50,0000.12,0000.22,-000.36,-000.20,-000.18,16.6,23.3,,00.0,0644.6,30.9
2021-02-05T19:14:00Z,00000200,01000000,0000.98,0000.43,0000.23,0000.45,-000.03,0000.10,0000.08,-000.12,-000.22,16.5,23.3,,00.0,0644.6,30.9
2021-02-05T19:15:00Z,00000200,01000000,0000.69,0000.63,0000.13,0000.14,-000.03,0000.22,-000.04,0000.16,0000.14,16.5,23.3,,00.0,0644.6,30.9
2021-02-05T19:16:00Z,00000200,01000000,0000.41,0000.16,-000.25,0000.20,0000.29,-000.07,-000.10,-000.06,0000.04,16.5,23.2,,00.0,0644.7,30.9
2021-02-05T19:17:00Z,00000200,01000000,-000.08,-000.01,-000.05,0000.16,0000.15,0000.28,0000.05,-000.17,-000.05,16.5,23.3,,00.0,0644.7,30.9
2021-02-05T19:18:00Z,00000200,01000000,-000.11,0000.38,-000.01,-000.53,0000.09,-000.05,-000.15,-000.38,0000.39,16.5,23.3,,00.0,0644.8,30.9
2021-02-05T19:19:00Z,00000200,01000000,0000.09,0000.40,0000.25,0000.35,0000.16,-000.01,-000.12,0000.10,-000.72,16.5,23.2,,00.0,0644.8,30.9
2021-02-05T19:20:00Z,00000200,01000000,0000.48,0000.10,0000.14,-000.44,-000.01,0000.13,0000.03,0000.10,0000.01,16.5,23.2,,00.0,0644.8,30.9
2021-02-05T19:21:00Z,00000200,01000000,0000.28,0000.32,0000.04,0000.18,0000.21,0000.16,-000.07,0000.13,0000.13,16.4,23.2,,00.0,0644.9,30.9
2021-02-05T19:22:00Z,00000200,01000000,0000.13,0000.03,0000.04,-000.32,0000.15,0000.16,0000.01,-000.15,0000.04,16.4,23.2,,00.0,0644.9,30.9
2021-02-05T19:23:00Z,00000200,01000000,-000.14,0000.17,-000.09,0000.02,-000.07,0000.07,0000.10,0000.03,0000.09,16.3,23.2,,00.0,0644.9,30.9
2021-02-05T19:24:00Z,00000200,01000000,-000.00,0000.17,0000.02,-000.10,0000.13,0000.18,-000.21,-000.32,-000.23,16.3,23.1,,00.0,0644.9,30.9
2021-02-05T19:25:00Z,00000200,01000000,0000.15,0000.34,-000.01,-000.09,0000.30,0000.07,0000.05,0000.05,-000.02,16.2,23.1,,00.0,0645.0,30.9
2021-02-05T19:26:00Z,00000200,01000000,-000.27,0000.50,0000.08,-000.22,0000.06,0000.20,0000.01,-000.11,-000.04,16.2,23.1,,00.0,0645.0,30.9
2021-02-05T19:27:00Z,00000200,01000000,0000.43,0000.24,-000.12,-000.20,0000.07,0000.01,-000.02,0000.14,-000.18,16.1,23.1,,00.0,0644.9,30.9
2021-02-05T19:28:00Z,00000200,01000000,-000.18,0000.31,0000.01,-000.36,0000.24,0000.10,0000.07,-000.02,0000.43,16.1,23.1,,00.0,0644.9,30.9
2021-02-05T19:29:00Z,00000200,01000000,0001.38,0000.21,-000.06,-000.38,-000.03,0000.02,-000.21,-000.17,-000.27,16.0,23.0,,00.0,0644.9,30.9
2021-02-05T19:30:00Z,00000200,01000000,0000.28,0000.22,0000.05,-000.05,0000.12,0000.25,0000.28,-000.16,0000.33,16.0,23.0,,00.0,0645.0,30.9
2021-02-05T19:31:00Z,00000200,01000000,0000.40,0000.11,-000.02,0000.22,-000.16,0000.30,-000.21,0000.33,0000.26,16.0,23.0,,00.0,0645.0,30.9
2021-02-05T19:32:00Z,00000200,01000000,0000.30,0000.12,-000.14,-000.14,0000.20,0000.15,0000.14,0000.04,-000.35,16.1,23.0,,00.0,0645.1,30.9
2021-02-05T19:33:00Z,00000200,01000000,0000.43,0000.00,-000.01,-000.31,0000.24,0000.33,0000.01,0000.09,-000.03,16.2,23.0,,00.0,0645.2,30.9
2021-02-05T19:34:00Z,00000200,01000000,0000.12,0000.09,-000.08,-000.06,0000.19,0000.23,-000.11,0000.04,0000.27,16.3,23.1,,00.0,0645.2,30.9
2021-02-05T19:35:00Z,00000200,01000000,-000.13,0000.33,0000.12,-000.22,-000.01,0000.08,-000.23,-000.67,-000.12,16.3,23.1,,00.0,0645.2,30.9
2021-02-05T19:36:00Z,00000200,01000000,-000.15,0000.14,-000.16,0000.25,0000.18,-000.13,0000.17,0000.37,0000.10,16.4,23.1,,00.0,0645.2,30.9
2021-02-05T19:37:00Z,00000200,01000000,0000.02,0000.22,0000.15,-000.26,0000.11,0000.05,0000.14,0000.12,-000.44,16.3,23.1,,00.0,0645.3,30.9
2021-02-05T19:38:00Z,00000200,01000000,0000.67,0000.17,-000.06,-000.25,0000.10,0000.09,-000.12,0000.02,0000.40,16.3,23.1,,00.0,0645.3,30.9
2021-02-05T19:39:00Z,00000200,01000000,0000.25,0000.16,-000.00,-000.05,-000.01,0000.15,-000.24,-000.38,-000.34,16.2,23.1,,00.0,0645.3,30.9
2021-02-05T19:40:00Z,00000200,01000000,-000.67,0000.39,0000.20,-000.54,0000.29,0000.26,0000.49,0000.16,0000.44,16.2,23.0,,00.0,0645.3,30.9
2021-02-05T19:41:00Z,00000200,01000000,0000.27,0000.26,0000.15,0000.00,0000.01,0000.19,-000.39,0000.06,-000.26,16.1,23.0,,00.0,0645.4,30.9
2021-02-05T19:42:00Z,00000200,01000000,0000.80,0000.16,-000.02,-000.51,0000.21,0000.18,-000.12,0000.09,0000.08,16.1,23.0,,00.0,0645.4,30.9
2021-02-05T19:43:00Z,00000200,01000000,0000.22,0000.38,0000.23,-000.58,0000.08,0000.18,0000.02,0000.27,0000.03,16.0,23.0,,00.0,0645.4,30.9
2021-02-05T19:44:00Z,00000200,01000000,-000.49,0000.26,0000.19,-000.45,0000.31,0000.21,0000.10,-000.79,-000.00,16.0,22.9,,00.0,0645.4,30.9
2021-02-05T19:45:00Z,00000200,01000000,0000.79,0000.36,0000.15,-000.35,-000.19,0000.32,0000.18,0000.60,0000.01,16.0,22.9,,00.0,0645.4,30.9
2021-02-05T19:46:00Z,00000200,01000000,0000.40,0000.28,-000.08,0000.18,-000.05,0000.18,-000.09,0000.32,0000.13,16.0,22.9,,00.0,0645.4,30.9
2021-02-05T19:47:00Z,00000200,01000000,0000.10,0000.09,-000.14,-000.38,-000.20,0000.33,-000.08,-000.12,0000.32,16.1,22.9,,00.0,0645.4,30.9
2021-02-05T19:48:00Z,00000200,01000000,0000.24,0000.25,-000.11,-000.17,0000.04,-000.14,0000.66,0000.07,-000.07,16.1,22.9,,00.0,0645.4,30.9
2021-02-05T19:49:00Z,00000200,01000000,0000.10,0000.15,0000.21,-000.31,0000.19,-000.09,-000.09,0000.30,-000.02,16.2,23.0,,00.0,0645.4,30.9
2021-02-05T19:50:00Z,00000200,01000000,0000.05,0000.06,0000.02,-000.01,-000.04,-000.01,-000.17,-000.73,-000.11,16.3,23.0,,00.0,0645.4,30.9
2021-02-05T19:51:00Z,00000200,01000000,0000.25,0000.51,0000.07,0000.06,0000.18,0000.05,-000.10,0000.36,0000.17,16.3,23.0,,00.0,0645.4,30.9
2021-02-05T19:52:00Z,00000200,01000000,0001.24,0000.28,0000.29,-000.38,0000.02,0000.18,0000.18,0000.21,0000.01,16.3,23.0,,00.0,0645.4,30.9
2021-02-05T19:53:00Z,00000200,01000000,0000.46,0000.32,-000.14,0000.11,0000.08,-000.08,0000.12,-000.06,-000.02,16.2,23.0,,00.0,0645.5,30.9
2021-02-05T19:54:00Z,00000200,01000000,0000.22,0000.44,0000.15,0000.06,-000.05,0000.13,-000.12,-000.17,0000.18,16.2,23.0,,00.0,0645.6,30.9
2021-02-05T19:55:00Z,00000200,01000000,0000.58,0000.37,0000.15,-000.03,0000.08,-000.02,0000.27,0000.27,-000.02,16.1,23.0,,00.0,0645.5,30.9
2021-02-05T19:56:00Z,00000200,01000000,-000.21,0000.18,0000.06,-000.34,0000.01,-000.28,-000.09,0000.03,-000.05,16.0,22.9,,00.0,0645.5,30.9
2021-02-05T19:57:00Z,00000200,41000000,,,,,,,0001.89,0001.73,0001.12,16.0,23.0,,00.0,0645.6,30.9
2021-02-05T19:58:00Z,00000200,61000000,,,,,,,-000.88,-001.18,-000.73,15.6,23.0,,00.0,0644.7,30.9
2021-02-05T19:59:00Z,00000200,21000000,,,,,,,-000.78,-000.20,-000.40,15.5,23.1,,00.0,0644.7,30.9
